Weather past 2 weeks in Bantam, Cocos Islands

Now
79 °F

Passing clouds.


Feels Like: 81 °F
Forecast: 78 / 83 °F
Wind: 22 mph from Southeast

Location: Cocos Island Airport

Current Time: Sep 18, 2014 at 6:14:43 AM

Latest Report: Sep 18, 2014 at 5:30 AM


Visibility: N/A

Pressure: 29.89 "Hg

Humidity: 70%

Dew point: 68 °F

Location of BantamLocation

Historic Weather in Bantam — Graph

°F

Bantam temperature yesterday

Maximum temperature yesterday: 82 °F (at 9:00 AM)
Minimum temperature yesterday: 79 °F (at 12:30 AM)
Average temperature yesterday: 81 °F

Past Weeks' High & Low Weather Summary

 TemperatureHumidityPressure
High84 °F (Sep 4, 10:30 AM)100% (Sep 6, 9:30 PM)30.01 "Hg (Sep 6, 9:30 PM)
Low73 °F (Sep 6, 9:30 PM)54% (Sep 13, 8:30 AM)29.80 "Hg (Sep 16, 3:30 PM)
Average80 °F73%29.92 "Hg
* Reported Sep 3 4:30 AM — Sep 18 5:00 AM, Bantam, Weather by CustomWeather, © 2014

Note: Actual official high and low records may vary slightly from our data, if they occured in-between our weather recording intervals... More about our weather records

Advertising

Bantam weather history for previous 24 hours

 ConditionsComfort  
Time TempWeatherWind HumidityBarometerVisibility
5:00 AM
Sep 18
79 °FOvercast.18 mph70%29.89 "HgN/A
4:30 AM79 °FSprinkles. Overcast.17 mph70%29.89 "HgN/A
4:00 AM79 °FPassing clouds.22 mph74%29.89 "HgN/A
3:30 AM79 °FPassing clouds.21 mph74%29.89 "HgN/A
3:00 AM79 °FOvercast.18 mph74%29.89 "HgN/A
2:30 AM79 °FLight rain. Partly cloudy.18 mph74%29.89 "HgN/A
2:00 AM79 °FPassing clouds.17 mph74%29.89 "HgN/A
1:30 AM81 °FClear.21 mph66%29.89 "HgN/A
1:00 AM79 °FClear.18 mph74%29.92 "HgN/A
12:30 AM81 °FClear.22 mph70%29.92 "HgN/A
12:00 AM81 °FWarm.22 mph70%29.92 "HgN/A
11:30 PM
Sep 17
81 °FPassing clouds.20 mph70%29.92 "HgN/A
11:00 PM81 °FPartly cloudy.22 mph70%29.95 "HgN/A
10:30 PM81 °FMostly cloudy.21 mph70%29.95 "HgN/A
10:00 PM81 °FPartly cloudy.21 mph70%29.95 "HgN/A
9:30 PM81 °FPartly cloudy.17 mph70%29.95 "HgN/A
9:00 PM81 °FClear.18 mph66%29.95 "HgN/A
8:30 PM81 °FPassing clouds.18 mph70%29.92 "HgN/A
8:00 PM81 °FPassing clouds.18 mph66%29.92 "HgN/A
7:30 PM81 °FPassing clouds.20 mph66%29.89 "HgN/A
7:00 PM81 °FPassing clouds.18 mph70%29.89 "HgN/A
6:30 PM81 °FScattered clouds.18 mph70%29.89 "HgN/A
6:00 PM81 °FScattered clouds.18 mph70%29.89 "HgN/A
5:30 PM81 °FScattered clouds.18 mph70%29.86 "HgN/A
5:00 PM81 °FScattered clouds.18 mph70%29.86 "HgN/A
4:30 PM82 °FScattered clouds.18 mph66%29.86 "HgN/A
4:00 PM82 °FScattered clouds.21 mph66%29.86 "HgN/A
3:30 PM82 °FScattered clouds.22 mph66%29.83 "HgN/A
3:00 PM82 °FScattered clouds.22 mph66%29.83 "HgN/A
2:30 PM82 °FScattered clouds.21 mph66%29.86 "HgN/A
2:00 PM82 °FScattered clouds.23 mph66%29.86 "HgN/A
1:30 PM82 °FPartly sunny.22 mph66%29.86 "HgN/A
1:00 PM82 °FScattered clouds.22 mph66%29.86 "HgN/A
12:30 PM82 °FScattered clouds.23 mph70%29.89 "HgN/A
12:00 PM82 °FScattered clouds.22 mph70%29.89 "HgN/A
11:30 AM82 °FScattered clouds.22 mph66%29.92 "HgN/A
11:00 AM82 °FScattered clouds.22 mph66%29.92 "HgN/A
10:30 AM82 °FScattered clouds.20 mph66%29.92 "HgN/A
10:00 AM82 °FScattered clouds.22 mph62%29.92 "HgN/A
9:30 AM82 °FScattered clouds.21 mph62%29.95 "HgN/A
9:00 AM82 °FScattered clouds.20 mph62%29.95 "HgN/A
8:30 AM81 °FScattered clouds.20 mph62%29.92 "HgN/A
8:00 AM81 °FScattered clouds.20 mph62%29.92 "HgN/A
7:30 AM81 °FPartly sunny.23 mph62%29.92 "HgN/A
7:00 AM79 °FPartly sunny.21 mph70%29.89 "HgN/A
6:30 AM79 °FPassing clouds.18 mph65%29.89 "HgN/A
6:00 AM79 °FPassing clouds.20 mph65%29.89 "HgN/A
Weather by CustomWeather, © 2014

See weather overviewHow to use our weather pages